Location: Schommer Observatory
(40.5200°N, 74.4500°W)
Time: 03:40:38
(UTC-05:00)

N. Korean satellite - Pass Details

Date: 13 November 2017
Orbit: 460 x 515 km, 97.2° (Epoch: 18 November)

Event Time Altitude Azimuth Distance (km) Brightness Sun altitude
Rises 17:35:44 0° 153° (SSE) 2,472 10.0 -10.5°
Reaches altitude 10° 17:37:49 10° 146° (SSE) 1,605 9.0 -10.9°
Maximum altitude 17:41:05 43° 74° (ENE) 664 6.8 -11.5°
Drops below altitude 10° 17:44:26 10° 2° (N) 1,635 9.1 -12.1°
Sets 17:46:33 0° 356° (N) 2,524 10.1 -12.5°
